Time,TemperatureF,DewpointF,PressureIn,WindDirection,WindDirectionDegrees,WindSpeedMPH,WindSpeedGustMPH,Humidity,HourlyPrecipIn,Conditions,Clouds,dailyrainin,SoftwareType,DateUTC
2013-07-16 00:01:00,63.2,50.0,25.90,ESE,112,3.0,3.0,64,0.00,,,0.00,Rainwise IP-100,2013-07-16 06:01:00,
2013-07-16 00:06:00,63.2,51.0,25.90,ESE,112,2.0,4.0,65,0.00,,,0.00,Rainwise IP-100,2013-07-16 06:06:00,
2013-07-16 00:11:00,63.2,51.0,25.90,ESE,112,2.0,3.0,65,0.00,,,0.00,Rainwise IP-100,2013-07-16 06:11:00,
2013-07-16 00:16:00,63.1,51.0,25.90,SE,135,2.0,3.0,65,0.00,,,0.00,Rainwise IP-100,2013-07-16 06:16:00,
2013-07-16 00:21:00,62.9,51.0,25.90,ESE,112,2.0,3.0,66,0.00,,,0.00,Rainwise IP-100,2013-07-16 06:21:00,
2013-07-16 00:26:00,62.7,51.0,25.90,ESE,112,2.0,3.0,67,0.00,,,0.00,Rainwise IP-100,2013-07-16 06:26:00,
2013-07-16 00:31:00,62.4,52.0,25.90,ESE,112,3.0,3.0,69,0.00,,,0.00,Rainwise IP-100,2013-07-16 06:31:00,
2013-07-16 00:36:00,62.0,52.0,25.90,East,90,4.0,4.0,70,0.00,,,0.00,Rainwise IP-100,2013-07-16 06:36:00,
2013-07-16 00:41:00,61.8,52.0,25.90,ESE,112,3.0,6.0,71,0.00,,,0.00,Rainwise IP-100,2013-07-16 06:41:00,
2013-07-16 00:46:00,62.0,53.0,25.90,ESE,112,4.0,7.0,71,0.00,,,0.00,Rainwise IP-100,2013-07-16 06:46:00,
2013-07-16 00:51:00,62.4,53.0,25.90,ESE,112,4.0,7.0,70,0.00,,,0.00,Rainwise IP-100,2013-07-16 06:51:00,
2013-07-16 00:56:00,62.7,52.0,25.90,ESE,112,4.0,7.0,69,0.00,,,0.00,Rainwise IP-100,2013-07-16 06:56:00,
2013-07-16 01:01:00,62.7,52.0,25.89,SSE,157,2.0,6.0,69,0.00,,,0.00,Rainwise IP-100,2013-07-16 07:01:00,
2013-07-16 01:06:00,62.5,53.0,25.89,SSE,157,3.0,6.0,70,0.00,,,0.00,Rainwise IP-100,2013-07-16 07:06:00,
2013-07-16 01:11:00,62.4,53.0,25.89,SSE,157,4.0,6.0,71,0.00,,,0.00,Rainwise IP-100,2013-07-16 07:11:00,
2013-07-16 01:16:00,62.3,53.0,25.89,SSE,157,1.0,6.0,72,0.00,,,0.00,Rainwise IP-100,2013-07-16 07:16:00,
2013-07-16 01:21:00,62.2,53.0,25.89,SSE,157,3.0,5.0,74,0.00,,,0.00,Rainwise IP-100,2013-07-16 07:21:00,
2013-07-16 01:26:00,62.2,54.0,25.89,SSE,157,3.0,5.0,75,0.00,,,0.00,Rainwise IP-100,2013-07-16 07:26:00,
2013-07-16 01:31:00,62.1,54.0,25.89,SE,135,4.0,6.0,76,0.00,,,0.00,Rainwise IP-100,2013-07-16 07:31:00,
2013-07-16 01:36:00,62.0,54.0,25.89,SSE,157,4.0,5.0,77,0.00,,,0.00,Rainwise IP-100,2013-07-16 07:36:00,
2013-07-16 01:41:00,62.0,55.0,25.89,SE,135,2.0,5.0,78,0.00,,,0.00,Rainwise IP-100,2013-07-16 07:41:00,
2013-07-16 01:46:00,62.0,55.0,25.89,SSE,157,2.0,5.0,79,0.00,,,0.00,Rainwise IP-100,2013-07-16 07:46:00,
2013-07-16 01:51:00,61.9,56.0,25.89,ESE,112,2.0,5.0,80,0.00,,,0.00,Rainwise IP-100,2013-07-16 07:51:00,
2013-07-16 01:56:00,61.7,56.0,25.89,SSE,157,4.0,5.0,81,0.00,,,0.00,Rainwise IP-100,2013-07-16 07:56:00,
2013-07-16 02:01:00,61.7,56.0,25.89,ESE,112,0.0,4.0,81,0.00,,,0.00,Rainwise IP-100,2013-07-16 08:01:00,
2013-07-16 02:06:00,61.6,56.0,25.89,SE,135,2.0,4.0,82,0.00,,,0.00,Rainwise IP-100,2013-07-16 08:06:00,
2013-07-16 02:11:00,61.6,56.0,25.89,SE,135,2.0,4.0,83,0.00,,,0.00,Rainwise IP-100,2013-07-16 08:11:00,
2013-07-16 02:16:00,61.6,56.0,25.89,ESE,112,3.0,4.0,83,0.00,,,0.00,Rainwise IP-100,2013-07-16 08:16:00,
2013-07-16 02:21:00,61.6,56.0,25.88,ESE,112,2.0,5.0,84,0.00,,,0.00,Rainwise IP-100,2013-07-16 08:21:00,
2013-07-16 02:26:00,61.6,56.0,25.88,ESE,112,2.0,4.0,84,0.00,,,0.00,Rainwise IP-100,2013-07-16 08:26:00,
2013-07-16 02:29:00,61.5,56.0,25.89,ESE,112,2.0,4.0,84,0.00,,,0.00,Rainwise IP-100,2013-07-16 08:29:00,
2013-07-16 02:34:00,61.5,57.0,25.88,ESE,112,3.0,5.0,85,0.00,,,0.00,Rainwise IP-100,2013-07-16 08:34:00,
2013-07-16 02:39:00,61.4,57.0,25.88,ESE,112,2.0,5.0,85,0.00,,,0.00,Rainwise IP-100,2013-07-16 08:39:00,
2013-07-16 02:44:00,61.2,56.0,25.88,SE,135,1.0,4.0,85,0.00,,,0.00,Rainwise IP-100,2013-07-16 08:44:00,
2013-07-16 02:49:00,61.0,56.0,25.88,SE,135,0.0,3.0,86,0.00,,,0.00,Rainwise IP-100,2013-07-16 08:49:00,
2013-07-16 02:54:00,60.8,56.0,25.88,SSE,157,0.0,2.0,86,0.00,,,0.00,Rainwise IP-100,2013-07-16 08:54:00,
2013-07-16 02:59:00,60.6,56.0,25.88,SSE,157,1.0,2.0,87,0.00,,,0.00,Rainwise IP-100,2013-07-16 08:59:00,
2013-07-16 03:04:00,60.4,56.0,25.88,SSE,157,4.0,4.0,87,0.00,,,0.00,Rainwise IP-100,2013-07-16 09:04:00,
2013-07-16 03:09:00,60.4,57.0,25.87,SSE,157,4.0,5.0,88,0.00,,,0.00,Rainwise IP-100,2013-07-16 09:09:00,
2013-07-16 03:14:00,60.5,57.0,25.87,SSE,157,3.0,5.0,88,0.00,,,0.00,Rainwise IP-100,2013-07-16 09:14:00,
2013-07-16 03:19:00,60.6,57.0,25.88,SSE,157,0.0,4.0,88,0.00,,,0.00,Rainwise IP-100,2013-07-16 09:19:00,
2013-07-16 03:24:00,60.4,57.0,25.87,SE,135,0.0,2.0,88,0.00,,,0.00,Rainwise IP-100,2013-07-16 09:24:00,
2013-07-16 03:29:00,60.1,56.0,25.87,SE,135,1.0,3.0,88,0.00,,,0.00,Rainwise IP-100,2013-07-16 09:29:00,
2013-07-16 03:34:00,59.9,56.0,25.87,SE,135,3.0,3.0,89,0.00,,,0.00,Rainwise IP-100,2013-07-16 09:34:00,
2013-07-16 03:39:00,59.9,56.0,25.87,SSE,157,3.0,4.0,89,0.00,,,0.00,Rainwise IP-100,2013-07-16 09:39:00,
2013-07-16 03:44:00,59.9,56.0,25.87,SSE,157,4.0,4.0,89,0.00,,,0.00,Rainwise IP-100,2013-07-16 09:44:00,
2013-07-16 03:49:00,59.8,56.0,25.88,SSE,157,0.0,5.0,90,0.00,,,0.00,Rainwise IP-100,2013-07-16 09:49:00,
2013-07-16 03:54:00,59.8,56.0,25.87,SE,135,3.0,4.0,90,0.00,,,0.00,Rainwise IP-100,2013-07-16 09:54:00,
2013-07-16 03:59:00,59.7,56.0,25.88,SE,135,4.0,5.0,90,0.00,,,0.00,Rainwise IP-100,2013-07-16 09:59:00,
2013-07-16 04:04:00,59.6,56.0,25.87,SE,135,2.0,6.0,90,0.00,,,0.00,Rainwise IP-100,2013-07-16 10:04:00,
2013-07-16 04:09:00,59.4,56.0,25.87,ESE,112,4.0,5.0,90,0.00,,,0.00,Rainwise IP-100,2013-07-16 10:09:00,
2013-07-16 04:14:00,59.1,56.0,25.87,SE,135,3.0,4.0,91,0.00,,,0.00,Rainwise IP-100,2013-07-16 10:14:00,
2013-07-16 04:19:00,58.8,56.0,25.87,ESE,112,3.0,4.0,91,0.00,,,0.00,Rainwise IP-100,2013-07-16 10:19:00,
2013-07-16 04:24:00,58.6,56.0,25.88,ESE,112,3.0,5.0,92,0.00,,,0.00,Rainwise IP-100,2013-07-16 10:24:00,
2013-07-16 04:29:00,58.4,56.0,25.88,ESE,112,5.0,5.0,92,0.00,,,0.00,Rainwise IP-100,2013-07-16 10:29:00,
2013-07-16 04:34:00,58.2,56.0,25.88,SSE,157,2.0,5.0,92,0.00,,,0.00,Rainwise IP-100,2013-07-16 10:34:00,
2013-07-16 04:39:00,58.1,56.0,25.88,ESE,112,4.0,5.0,93,0.00,,,0.00,Rainwise IP-100,2013-07-16 10:39:00,
2013-07-16 04:44:00,58.0,56.0,25.89,SSE,157,3.0,5.0,93,0.00,,,0.00,Rainwise IP-100,2013-07-16 10:44:00,
2013-07-16 04:49:00,58.0,56.0,25.88,SE,135,3.0,6.0,93,0.00,,,0.00,Rainwise IP-100,2013-07-16 10:49:00,
2013-07-16 04:54:00,58.0,56.0,25.88,ESE,112,5.0,6.0,94,0.00,,,0.00,Rainwise IP-100,2013-07-16 10:54:00,
2013-07-16 04:59:00,57.8,56.0,25.88,SE,135,4.0,5.0,94,0.00,,,0.00,Rainwise IP-100,2013-07-16 10:59:00,
2013-07-16 05:04:00,57.8,56.0,25.88,SSE,157,4.0,6.0,94,0.00,,,0.00,Rainwise IP-100,2013-07-16 11:04:00,
2013-07-16 05:09:00,57.8,56.0,25.89,SE,135,7.0,7.0,94,0.00,,,0.00,Rainwise IP-100,2013-07-16 11:09:00,
2013-07-16 05:14:00,57.7,56.0,25.88,SE,135,5.0,7.0,95,0.00,,,0.00,Rainwise IP-100,2013-07-16 11:14:00,
2013-07-16 05:19:00,57.7,56.0,25.88,SE,135,2.0,6.0,95,0.00,,,0.00,Rainwise IP-100,2013-07-16 11:19:00,
2013-07-16 05:24:00,57.7,56.0,25.89,SE,135,4.0,5.0,95,0.00,,,0.00,Rainwise IP-100,2013-07-16 11:24:00,
2013-07-16 05:29:00,57.7,56.0,25.89,SE,135,4.0,7.0,95,0.00,,,0.00,Rainwise IP-100,2013-07-16 11:29:00,
2013-07-16 05:34:00,57.6,56.0,25.89,SE,135,5.0,6.0,96,0.00,,,0.00,Rainwise IP-100,2013-07-16 11:34:00,
2013-07-16 05:39:00,57.5,56.0,25.89,SE,135,4.0,7.0,96,0.00,,,0.00,Rainwise IP-100,2013-07-16 11:39:00,
2013-07-16 05:44:00,57.4,56.0,25.89,SE,135,7.0,7.0,96,0.00,,,0.00,Rainwise IP-100,2013-07-16 11:44:00,
2013-07-16 05:49:00,57.3,56.0,25.89,SE,135,7.0,8.0,96,0.00,,,0.00,Rainwise IP-100,2013-07-16 11:49:00,
2013-07-16 05:54:00,57.3,56.0,25.89,SE,135,4.0,7.0,96,0.00,,,0.00,Rainwise IP-100,2013-07-16 11:54:00,
2013-07-16 05:59:00,57.4,56.0,25.90,SE,135,7.0,8.0,96,0.00,,,0.00,Rainwise IP-100,2013-07-16 11:59:00,
2013-07-16 06:04:00,57.5,57.0,25.90,SE,135,8.0,8.0,97,0.00,,,0.00,Rainwise IP-100,2013-07-16 12:04:00,
2013-07-16 06:09:00,57.5,57.0,25.90,SE,135,3.0,8.0,97,0.00,,,0.00,Rainwise IP-100,2013-07-16 12:09:00,
2013-07-16 06:14:00,57.5,57.0,25.90,SE,135,4.0,8.0,97,0.00,,,0.00,Rainwise IP-100,2013-07-16 12:14:00,
2013-07-16 06:19:00,57.5,57.0,25.90,SE,135,4.0,8.0,97,0.00,,,0.00,Rainwise IP-100,2013-07-16 12:19:00,
2013-07-16 06:24:00,57.6,57.0,25.90,SE,135,3.0,7.0,97,0.00,,,0.00,Rainwise IP-100,2013-07-16 12:24:00,
2013-07-16 06:29:00,57.7,57.0,25.90,SE,135,6.0,7.0,97,0.00,,,0.00,Rainwise IP-100,2013-07-16 12:29:00,
2013-07-16 06:34:00,57.8,57.0,25.90,SE,135,3.0,7.0,97,0.00,,,0.00,Rainwise IP-100,2013-07-16 12:34:00,
2013-07-16 06:39:00,57.9,57.0,25.91,SE,135,3.0,8.0,97,0.00,,,0.00,Rainwise IP-100,2013-07-16 12:39:00,
2013-07-16 06:44:00,58.0,57.0,25.91,SSE,157,3.0,6.0,97,0.00,,,0.00,Rainwise IP-100,2013-07-16 12:44:00,
2013-07-16 06:49:00,58.2,57.0,25.91,SE,135,4.0,6.0,97,0.00,,,0.00,Rainwise IP-100,2013-07-16 12:49:00,
2013-07-16 06:54:00,58.6,58.0,25.91,South,180,2.0,8.0,97,0.00,,,0.00,Rainwise IP-100,2013-07-16 12:54:00,
2013-07-16 06:59:00,59.1,57.0,25.92,ESE,112,3.0,8.0,96,0.00,,,0.00,Rainwise IP-100,2013-07-16 12:59:00,
2013-07-16 07:04:00,59.6,57.0,25.92,SSE,157,8.0,8.0,95,0.00,,,0.00,Rainwise IP-100,2013-07-16 13:04:00,
2013-07-16 07:09:00,60.1,58.0,25.91,East,90,4.0,4.0,94,0.00,,,0.00,Rainwise IP-100,2013-07-16 13:09:00,
2013-07-16 07:14:00,60.4,58.0,25.91,SSE,157,4.0,4.0,92,0.00,,,0.00,Rainwise IP-100,2013-07-16 13:14:00,
2013-07-16 07:19:00,60.7,57.0,25.92,SSE,157,6.0,0.0,91,0.00,,,0.00,Rainwise IP-100,2013-07-16 13:19:00,
2013-07-16 07:24:00,61.0,58.0,25.91,SSE,157,6.0,6.0,90,0.00,,,0.00,Rainwise IP-100,2013-07-16 13:24:00,
2013-07-16 07:29:00,61.3,57.0,25.92,South,180,7.0,7.0,89,0.00,,,0.00,Rainwise IP-100,2013-07-16 13:29:00,
2013-07-16 07:34:00,61.6,57.0,25.92,SSE,157,0.0,4.0,88,0.00,,,0.00,Rainwise IP-100,2013-07-16 13:34:00,
2013-07-16 07:39:00,62.2,57.0,25.92,South,180,6.0,6.0,86,0.00,,,0.00,Rainwise IP-100,2013-07-16 13:39:00,
2013-07-16 07:44:00,62.6,57.0,25.92,South,180,7.0,7.0,84,0.00,,,0.00,Rainwise IP-100,2013-07-16 13:44:00,
2013-07-16 07:49:00,63.0,57.0,25.92,South,180,0.0,4.0,83,0.00,,,0.00,Rainwise IP-100,2013-07-16 13:49:00,
2013-07-16 07:54:00,63.4,57.0,25.92,South,180,0.0,4.0,81,0.00,,,0.00,Rainwise IP-100,2013-07-16 13:54:00,
2013-07-16 07:59:00,63.6,57.0,25.92,SSE,157,7.0,7.0,80,0.00,,,0.00,Rainwise IP-100,2013-07-16 13:59:00,
2013-07-16 08:04:00,63.9,57.0,25.93,South,180,0.0,4.0,79,0.00,,,0.00,Rainwise IP-100,2013-07-16 14:04:00,
2013-07-16 08:09:00,64.1,57.0,25.93,SSE,157,0.0,3.0,78,0.00,,,0.00,Rainwise IP-100,2013-07-16 14:09:00,
2013-07-16 08:14:00,64.3,56.0,25.92,South,180,5.0,5.0,77,0.00,,,0.00,Rainwise IP-100,2013-07-16 14:14:00,
2013-07-16 08:19:00,65.0,57.0,25.93,South,180,0.0,1.0,76,0.00,,,0.00,Rainwise IP-100,2013-07-16 14:19:00,
2013-07-16 08:24:00,65.2,57.0,25.93,SSE,157,0.0,4.0,75,0.00,,,0.00,Rainwise IP-100,2013-07-16 14:24:00,
2013-07-16 08:29:00,65.1,56.0,25.94,SSE,157,5.0,5.0,74,0.00,,,0.00,Rainwise IP-100,2013-07-16 14:29:00,
2013-07-16 08:34:00,65.9,57.0,25.94,South,180,0.0,5.0,73,0.00,,,0.00,Rainwise IP-100,2013-07-16 14:34:00,
2013-07-16 08:39:00,66.5,57.0,25.93,SSE,157,9.0,9.0,71,0.00,,,0.00,Rainwise IP-100,2013-07-16 14:39:00,
2013-07-16 08:44:00,66.5,56.0,25.94,South,180,9.0,9.0,69,0.00,,,0.00,Rainwise IP-100,2013-07-16 14:44:00,
2013-07-16 08:49:00,66.4,56.0,25.93,SSE,157,7.0,7.0,69,0.00,,,0.00,Rainwise IP-100,2013-07-16 14:49:00,
2013-07-16 08:54:00,66.3,56.0,25.94,SSW,202,4.0,4.0,69,0.00,,,0.00,Rainwise IP-100,2013-07-16 14:54:00,
2013-07-16 08:59:00,66.9,56.0,25.93,SSW,202,5.0,5.0,68,0.00,,,0.00,Rainwise IP-100,2013-07-16 14:59:00,
2013-07-16 09:04:00,67.3,56.0,25.94,SSE,157,3.0,3.0,67,0.00,,,0.00,Rainwise IP-100,2013-07-16 15:04:00,
2013-07-16 09:09:00,67.3,55.0,25.94,SSE,157,6.0,6.0,66,0.00,,,0.00,Rainwise IP-100,2013-07-16 15:09:00,
2013-07-16 09:14:00,67.6,56.0,25.94,SSE,157,0.0,3.0,66,0.00,,,0.00,Rainwise IP-100,2013-07-16 15:14:00,
2013-07-16 09:19:00,67.5,55.0,25.94,South,180,9.0,9.0,65,0.00,,,0.00,Rainwise IP-100,2013-07-16 15:19:00,
2013-07-16 09:24:00,67.2,55.0,25.94,SSE,157,0.0,4.0,65,0.00,,,0.00,Rainwise IP-100,2013-07-16 15:24:00,
2013-07-16 09:29:00,67.1,54.0,25.93,SSE,157,0.0,4.0,64,0.00,,,0.00,Rainwise IP-100,2013-07-16 15:29:00,
2013-07-16 09:34:00,67.1,54.0,25.94,SSE,157,0.0,6.0,64,0.00,,,0.00,Rainwise IP-100,2013-07-16 15:34:00,
2013-07-16 09:39:00,67.3,54.0,25.94,SSE,157,9.0,9.0,64,0.00,,,0.00,Rainwise IP-100,2013-07-16 15:39:00,
2013-07-16 09:44:00,67.7,55.0,25.94,SSE,157,0.0,3.0,64,0.00,,,0.00,Rainwise IP-100,2013-07-16 15:44:00,
2013-07-16 09:49:00,68.2,54.0,25.94,SSE,157,6.0,6.0,63,0.00,,,0.00,Rainwise IP-100,2013-07-16 15:49:00,
2013-07-16 09:54:00,68.4,54.0,25.94,South,180,0.0,5.0,62,0.00,,,0.00,Rainwise IP-100,2013-07-16 15:54:00,
2013-07-16 09:59:00,68.2,54.0,25.93,SSW,202,0.0,7.0,62,0.00,,,0.00,Rainwise IP-100,2013-07-16 15:59:00,
2013-07-16 10:04:00,67.6,54.0,25.94,South,180,7.0,7.0,63,0.00,,,0.00,Rainwise IP-100,2013-07-16 16:04:00,
2013-07-16 10:09:00,67.6,54.0,25.94,SSE,157,0.0,4.0,63,0.00,,,0.00,Rainwise IP-100,2013-07-16 16:09:00,
2013-07-16 10:14:00,67.8,54.0,25.94,South,180,7.0,7.0,63,0.00,,,0.00,Rainwise IP-100,2013-07-16 16:14:00,
2013-07-16 10:19:00,67.8,54.0,25.94,South,180,7.0,7.0,62,0.00,,,0.00,Rainwise IP-100,2013-07-16 16:19:00,
2013-07-16 10:24:00,67.9,54.0,25.94,South,180,8.0,8.0,62,0.00,,,0.00,Rainwise IP-100,2013-07-16 16:24:00,
2013-07-16 10:29:00,68.0,54.0,25.94,SSW,202,4.0,4.0,62,0.00,,,0.00,Rainwise IP-100,2013-07-16 16:29:00,
2013-07-16 10:34:00,68.1,54.0,25.94,South,180,9.0,9.0,62,0.00,,,0.00,Rainwise IP-100,2013-07-16 16:34:00,
2013-07-16 10:39:00,68.5,54.0,25.94,South,180,4.0,4.0,62,0.00,,,0.00,Rainwise IP-100,2013-07-16 16:39:00,
2013-07-16 10:44:00,68.8,54.0,25.94,SSE,157,0.0,3.0,62,0.00,,,0.00,Rainwise IP-100,2013-07-16 16:44:00,
2013-07-16 10:49:00,69.2,55.0,25.94,SSE,157,0.0,8.0,61,0.00,,,0.00,Rainwise IP-100,2013-07-16 16:49:00,
2013-07-16 10:54:00,69.7,55.0,25.94,SSE,157,4.0,5.0,60,0.00,,,0.00,Rainwise IP-100,2013-07-16 16:54:00,
2013-07-16 10:59:00,70.0,55.0,25.94,SSE,157,7.0,7.0,60,0.00,,,0.00,Rainwise IP-100,2013-07-16 16:59:00,
2013-07-16 11:04:00,69.6,56.0,25.94,SSE,157,9.0,9.0,61,0.00,,,0.00,Rainwise IP-100,2013-07-16 17:04:00,
2013-07-16 11:09:00,69.3,55.0,25.94,SSE,157,7.0,7.0,61,0.00,,,0.00,Rainwise IP-100,2013-07-16 17:09:00,
2013-07-16 11:14:00,69.6,56.0,25.94,SSE,157,4.0,5.0,61,0.00,,,0.00,Rainwise IP-100,2013-07-16 17:14:00,
2013-07-16 11:19:00,69.7,56.0,25.94,ESE,112,4.0,4.0,61,0.00,,,0.00,Rainwise IP-100,2013-07-16 17:19:00,
2013-07-16 11:24:00,70.0,55.0,25.94,SE,135,5.0,5.0,60,0.00,,,0.00,Rainwise IP-100,2013-07-16 17:24:00,
2013-07-16 11:29:00,70.1,55.0,25.94,SE,135,3.0,6.0,60,0.00,,,0.00,Rainwise IP-100,2013-07-16 17:29:00,
2013-07-16 11:34:00,70.1,56.0,25.94,SSE,157,0.0,6.0,61,0.00,,,0.00,Rainwise IP-100,2013-07-16 17:34:00,
2013-07-16 11:39:00,69.7,56.0,25.94,South,180,5.0,6.0,61,0.00,,,0.00,Rainwise IP-100,2013-07-16 17:39:00,
2013-07-16 11:44:00,69.4,56.0,25.94,SSE,157,9.0,9.0,62,0.00,,,0.00,Rainwise IP-100,2013-07-16 17:44:00,
2013-07-16 11:49:00,70.2,56.0,25.94,SSE,157,0.0,7.0,61,0.00,,,0.00,Rainwise IP-100,2013-07-16 17:49:00,
2013-07-16 11:54:00,70.8,55.0,25.94,SSE,157,5.0,9.0,59,0.00,,,0.00,Rainwise IP-100,2013-07-16 17:54:00,
2013-07-16 11:59:00,70.8,55.0,25.94,SSE,157,7.0,7.0,58,0.00,,,0.00,Rainwise IP-100,2013-07-16 17:59:00,
2013-07-16 12:04:00,70.9,54.0,25.94,SSE,157,5.0,5.0,57,0.00,,,0.00,Rainwise IP-100,2013-07-16 18:04:00,
2013-07-16 12:09:00,71.1,54.0,25.94,SSE,157,9.0,9.0,57,0.00,,,0.00,Rainwise IP-100,2013-07-16 18:09:00,
2013-07-16 12:14:00,70.9,54.0,25.94,SSE,157,4.0,7.0,56,0.00,,,0.00,Rainwise IP-100,2013-07-16 18:14:00,
2013-07-16 12:19:00,70.9,54.0,25.93,ESE,112,0.0,6.0,56,0.00,,,0.00,Rainwise IP-100,2013-07-16 18:19:00,
2013-07-16 12:24:00,71.3,54.0,25.93,South,180,6.0,0.0,55,0.00,,,0.00,Rainwise IP-100,2013-07-16 18:24:00,
2013-07-16 12:29:00,71.9,54.0,25.94,ESE,112,0.0,4.0,55,0.00,,,0.00,Rainwise IP-100,2013-07-16 18:29:00,
2013-07-16 12:34:00,72.1,54.0,25.93,ESE,112,6.0,6.0,54,0.00,,,0.00,Rainwise IP-100,2013-07-16 18:34:00,
2013-07-16 12:39:00,71.6,54.0,25.93,SE,135,8.0,8.0,54,0.00,,,0.00,Rainwise IP-100,2013-07-16 18:39:00,
2013-07-16 12:44:00,71.5,54.0,25.93,SSE,157,0.0,6.0,55,0.00,,,0.00,Rainwise IP-100,2013-07-16 18:44:00,
2013-07-16 12:49:00,71.5,54.0,25.93,SSE,157,5.0,6.0,54,0.00,,,0.00,Rainwise IP-100,2013-07-16 18:49:00,
2013-07-16 12:54:00,71.5,54.0,25.93,SSE,157,6.0,8.0,54,0.00,,,0.00,Rainwise IP-100,2013-07-16 18:54:00,
2013-07-16 12:59:00,71.6,53.0,25.93,SE,135,5.0,5.0,53,0.00,,,0.00,Rainwise IP-100,2013-07-16 18:59:00,
2013-07-16 13:04:00,72.0,54.0,25.93,ESE,112,5.0,5.0,53,0.00,,,0.00,Rainwise IP-100,2013-07-16 19:04:00,
2013-07-16 13:09:00,72.2,54.0,25.93,SSW,202,4.0,4.0,52,0.00,,,0.00,Rainwise IP-100,2013-07-16 19:09:00,
2013-07-16 13:14:00,72.1,53.0,25.93,ESE,112,0.0,2.0,52,0.00,,,0.00,Rainwise IP-100,2013-07-16 19:14:00,
2013-07-16 13:19:00,72.3,54.0,25.93,SSE,157,4.0,4.0,52,0.00,,,0.00,Rainwise IP-100,2013-07-16 19:19:00,
2013-07-16 13:24:00,73.0,54.0,25.93,SSE,157,8.0,8.0,52,0.00,,,0.00,Rainwise IP-100,2013-07-16 19:24:00,
2013-07-16 13:29:00,73.4,54.0,25.92,SSE,157,9.0,9.0,51,0.00,,,0.00,Rainwise IP-100,2013-07-16 19:29:00,
2013-07-16 13:34:00,73.8,54.0,25.92,ESE,112,4.0,6.0,51,0.00,,,0.00,Rainwise IP-100,2013-07-16 19:34:00,
2013-07-16 13:39:00,74.0,54.0,25.92,SW,225,6.0,0.0,51,0.00,,,0.00,Rainwise IP-100,2013-07-16 19:39:00,
2013-07-16 13:44:00,73.9,54.0,25.92,SSE,157,9.0,9.0,51,0.00,,,0.00,Rainwise IP-100,2013-07-16 19:44:00,
2013-07-16 13:49:00,73.6,55.0,25.92,SSE,157,6.0,7.0,52,0.00,,,0.00,Rainwise IP-100,2013-07-16 19:49:00,
2013-07-16 13:54:00,73.4,54.0,25.92,SSE,157,7.0,7.0,52,0.00,,,0.00,Rainwise IP-100,2013-07-16 19:54:00,
2013-07-16 13:59:00,73.6,55.0,25.92,South,180,0.0,7.0,52,0.00,,,0.00,Rainwise IP-100,2013-07-16 19:59:00,
2013-07-16 14:04:00,74.2,55.0,25.92,SSW,202,4.0,4.0,51,0.00,,,0.00,Rainwise IP-100,2013-07-16 20:04:00,
2013-07-16 14:09:00,74.5,55.0,25.92,SSE,157,8.0,8.0,51,0.00,,,0.00,Rainwise IP-100,2013-07-16 20:09:00,
2013-07-16 14:14:00,74.5,55.0,25.92,SE,135,6.0,6.0,50,0.00,,,0.00,Rainwise IP-100,2013-07-16 20:14:00,
2013-07-16 14:19:00,74.7,55.0,25.92,SSE,157,4.0,6.0,50,0.00,,,0.00,Rainwise IP-100,2013-07-16 20:19:00,
2013-07-16 14:24:00,74.7,55.0,25.92,SSE,157,0.0,7.0,50,0.00,,,0.00,Rainwise IP-100,2013-07-16 20:24:00,
2013-07-16 14:29:00,74.4,54.0,25.92,SSE,157,0.0,7.0,50,0.00,,,0.00,Rainwise IP-100,2013-07-16 20:29:00,
2013-07-16 14:34:00,74.4,54.0,25.92,ENE,67,2.0,9.0,50,0.00,,,0.00,Rainwise IP-100,2013-07-16 20:34:00,
2013-07-16 14:39:00,74.6,55.0,25.92,SE,135,6.0,6.0,51,0.00,,,0.00,Rainwise IP-100,2013-07-16 20:39:00,
2013-07-16 14:44:00,75.0,56.0,25.92,ESE,112,5.0,6.0,51,0.00,,,0.00,Rainwise IP-100,2013-07-16 20:44:00,
2013-07-16 14:49:00,75.5,56.0,25.92,SSE,157,7.0,7.0,50,0.00,,,0.00,Rainwise IP-100,2013-07-16 20:49:00,
2013-07-16 14:54:00,76.2,56.0,25.91,SSE,157,7.0,8.0,50,0.00,,,0.00,Rainwise IP-100,2013-07-16 20:54:00,
2013-07-16 14:59:00,76.4,55.0,25.91,SSE,157,0.0,8.0,48,0.00,,,0.00,Rainwise IP-100,2013-07-16 20:59:00,
2013-07-16 15:04:00,76.0,54.0,25.92,South,180,8.0,8.0,48,0.00,,,0.00,Rainwise IP-100,2013-07-16 21:04:00,
2013-07-16 15:09:00,75.5,55.0,25.91,South,180,6.0,8.0,49,0.00,,,0.00,Rainwise IP-100,2013-07-16 21:09:00,
2013-07-16 15:14:00,75.6,55.0,25.92,SSE,157,0.0,1.0,49,0.00,,,0.00,Rainwise IP-100,2013-07-16 21:14:00,
2013-07-16 15:19:00,76.0,54.0,25.91,South,180,8.0,8.0,48,0.00,,,0.00,Rainwise IP-100,2013-07-16 21:19:00,
2013-07-16 15:24:00,75.7,54.0,25.91,South,180,7.0,7.0,48,0.00,,,0.00,Rainwise IP-100,2013-07-16 21:24:00,
2013-07-16 15:29:00,75.4,54.0,25.91,South,180,4.0,7.0,48,0.00,,,0.00,Rainwise IP-100,2013-07-16 21:29:00,
2013-07-16 15:34:00,75.5,54.0,25.91,SSE,157,6.0,8.0,48,0.00,,,0.00,Rainwise IP-100,2013-07-16 21:34:00,
2013-07-16 15:39:00,76.0,54.0,25.91,SE,135,0.0,6.0,48,0.00,,,0.00,Rainwise IP-100,2013-07-16 21:39:00,
2013-07-16 15:44:00,76.2,55.0,25.90,SSE,157,0.0,1.0,48,0.00,,,0.00,Rainwise IP-100,2013-07-16 21:44:00,
2013-07-16 15:49:00,76.1,55.0,25.91,ESE,112,8.0,9.0,49,0.00,,,0.00,Rainwise IP-100,2013-07-16 21:49:00,
2013-07-16 15:54:00,76.2,56.0,25.91,SSE,157,0.0,5.0,49,0.00,,,0.00,Rainwise IP-100,2013-07-16 21:54:00,
2013-07-16 15:59:00,76.5,56.0,25.91,South,180,5.0,9.0,49,0.00,,,0.00,Rainwise IP-100,2013-07-16 21:59:00,
2013-07-16 16:04:00,76.1,56.0,25.91,ESE,112,0.0,6.0,50,0.00,,,0.00,Rainwise IP-100,2013-07-16 22:04:00,
2013-07-16 16:09:00,75.0,56.0,25.91,SSE,157,0.0,4.0,51,0.00,,,0.00,Rainwise IP-100,2013-07-16 22:09:00,
2013-07-16 16:14:00,74.9,56.0,25.91,ESE,112,0.0,8.0,52,0.00,,,0.00,Rainwise IP-100,2013-07-16 22:14:00,
2013-07-16 16:19:00,74.9,56.0,25.91,SSE,157,9.0,9.0,52,0.00,,,0.00,Rainwise IP-100,2013-07-16 22:19:00,
2013-07-16 16:24:00,74.9,57.0,25.91,SE,135,0.0,8.0,53,0.00,,,0.00,Rainwise IP-100,2013-07-16 22:24:00,
2013-07-16 16:29:00,75.0,57.0,25.91,SE,135,7.0,7.0,53,0.00,,,0.00,Rainwise IP-100,2013-07-16 22:29:00,
2013-07-16 16:34:00,75.0,57.0,25.91,ESE,112,0.0,7.0,53,0.00,,,0.00,Rainwise IP-100,2013-07-16 22:34:00,
2013-07-16 16:39:00,75.3,57.0,25.92,SSE,157,5.0,7.0,53,0.00,,,0.00,Rainwise IP-100,2013-07-16 22:39:00,
2013-07-16 16:44:00,74.9,57.0,25.92,ESE,112,8.0,8.0,54,0.00,,,0.00,Rainwise IP-100,2013-07-16 22:44:00,
2013-07-16 16:49:00,74.4,57.0,25.92,South,180,9.0,9.0,55,0.00,,,0.00,Rainwise IP-100,2013-07-16 22:49:00,
2013-07-16 16:54:00,74.2,57.0,25.92,ESE,112,0.0,6.0,56,0.00,,,0.00,Rainwise IP-100,2013-07-16 22:54:00,
2013-07-16 16:59:00,73.4,57.0,25.92,ESE,112,0.0,0.0,57,0.00,,,0.00,Rainwise IP-100,2013-07-16 22:59:00,
2013-07-16 17:04:00,72.5,58.0,25.91,ESE,112,7.0,7.0,60,0.00,,,0.00,Rainwise IP-100,2013-07-16 23:04:00,
2013-07-16 17:09:00,72.4,58.0,25.92,South,180,0.0,0.0,61,0.00,,,0.00,Rainwise IP-100,2013-07-16 23:09:00,
2013-07-16 17:14:00,72.3,59.0,25.92,SSE,157,0.0,2.0,62,0.00,,,0.00,Rainwise IP-100,2013-07-16 23:14:00,
2013-07-16 17:19:00,72.1,59.0,25.92,SSE,157,9.0,9.0,64,0.00,,,0.00,Rainwise IP-100,2013-07-16 23:19:00,
2013-07-16 17:24:00,72.3,59.0,25.92,SE,135,0.0,1.0,64,0.00,,,0.00,Rainwise IP-100,2013-07-16 23:24:00,
2013-07-16 17:29:00,72.2,59.0,25.92,ENE,67,8.0,8.0,64,0.00,,,0.00,Rainwise IP-100,2013-07-16 23:29:00,
2013-07-16 17:34:00,72.1,59.0,25.92,SSE,157,9.0,0.0,63,0.00,,,0.00,Rainwise IP-100,2013-07-16 23:34:00,
2013-07-16 17:39:00,72.1,59.0,25.92,SSE,157,8.0,8.0,63,0.00,,,0.00,Rainwise IP-100,2013-07-16 23:39:00,
2013-07-16 17:44:00,72.1,59.0,25.92,SSE,157,9.0,0.0,63,0.00,,,0.00,Rainwise IP-100,2013-07-16 23:44:00,
2013-07-16 17:49:00,71.8,59.0,25.92,SSE,157,3.0,0.0,64,0.00,,,0.00,Rainwise IP-100,2013-07-16 23:49:00,
2013-07-16 17:54:00,71.8,59.0,25.92,SSW,202,5.0,9.0,65,0.00,,,0.00,Rainwise IP-100,2013-07-16 23:54:00,
2013-07-16 17:59:00,71.6,59.0,25.93,SSE,157,8.0,8.0,66,0.00,,,0.00,Rainwise IP-100,2013-07-16 23:59:00,
2013-07-16 18:04:00,71.4,59.0,25.93,SE,135,8.0,8.0,66,0.00,,,0.00,Rainwise IP-100,2013-07-17 00:04:00,
2013-07-16 18:09:00,71.6,59.0,25.92,South,180,0.0,8.0,66,0.00,,,0.00,Rainwise IP-100,2013-07-17 00:09:00,
2013-07-16 18:14:00,71.5,59.0,25.92,SSE,157,0.0,7.0,66,0.00,,,0.00,Rainwise IP-100,2013-07-17 00:14:00,
2013-07-16 18:19:00,71.3,59.0,25.92,South,180,6.0,9.0,65,0.00,,,0.00,Rainwise IP-100,2013-07-17 00:19:00,
2013-07-16 18:24:00,71.4,59.0,25.92,ESE,112,7.0,0.0,65,0.00,,,0.00,Rainwise IP-100,2013-07-17 00:24:00,
2013-07-16 18:29:00,71.3,59.0,25.92,ESE,112,7.0,8.0,66,0.00,,,0.00,Rainwise IP-100,2013-07-17 00:29:00,
2013-07-16 18:34:00,71.5,59.0,25.92,SSE,157,8.0,8.0,66,0.00,,,0.00,Rainwise IP-100,2013-07-17 00:34:00,
2013-07-16 18:39:00,71.4,59.0,25.92,SSE,157,0.0,9.0,65,0.00,,,0.00,Rainwise IP-100,2013-07-17 00:39:00,
2013-07-16 18:44:00,71.1,58.0,25.92,SSE,157,6.0,0.0,65,0.00,,,0.00,Rainwise IP-100,2013-07-17 00:44:00,
2013-07-16 18:49:00,71.2,59.0,25.92,SSE,157,0.0,8.0,65,0.00,,,0.00,Rainwise IP-100,2013-07-17 00:49:00,
2013-07-16 18:54:00,71.4,58.0,25.92,SSE,157,8.0,8.0,64,0.00,,,0.00,Rainwise IP-100,2013-07-17 00:54:00,
2013-07-16 18:59:00,71.5,59.0,25.93,South,180,8.0,8.0,64,0.00,,,0.00,Rainwise IP-100,2013-07-17 00:59:00,
2013-07-16 19:04:00,71.4,59.0,25.92,SSE,157,6.0,6.0,65,0.00,,,0.00,Rainwise IP-100,2013-07-17 01:04:00,
2013-07-16 19:09:00,71.0,58.0,25.93,SSE,157,0.0,7.0,65,0.00,,,0.00,Rainwise IP-100,2013-07-17 01:09:00,
2013-07-16 19:14:00,70.7,59.0,25.93,SSE,157,7.0,7.0,66,0.00,,,0.00,Rainwise IP-100,2013-07-17 01:14:00,
2013-07-16 19:19:00,70.4,58.0,25.93,SE,135,5.0,5.0,65,0.00,,,0.00,Rainwise IP-100,2013-07-17 01:19:00,
2013-07-16 19:24:00,70.2,58.0,25.93,South,180,0.0,8.0,66,0.00,,,0.00,Rainwise IP-100,2013-07-17 01:24:00,
2013-07-16 19:29:00,70.3,59.0,25.93,SSE,157,0.0,6.0,67,0.00,,,0.00,Rainwise IP-100,2013-07-17 01:29:00,
2013-07-16 19:34:00,70.4,59.0,25.93,South,180,0.0,0.0,67,0.00,,,0.00,Rainwise IP-100,2013-07-17 01:34:00,
2013-07-16 19:39:00,70.3,59.0,25.93,SSE,157,8.0,0.0,68,0.00,,,0.00,Rainwise IP-100,2013-07-17 01:39:00,
2013-07-16 19:44:00,70.2,59.0,25.93,SSE,157,0.0,1.0,68,0.00,,,0.00,Rainwise IP-100,2013-07-17 01:44:00,
2013-07-16 19:49:00,70.2,59.0,25.93,SSE,157,4.0,6.0,68,0.00,,,0.00,Rainwise IP-100,2013-07-17 01:49:00,
2013-07-16 19:54:00,70.0,59.0,25.93,South,180,0.0,5.0,69,0.00,,,0.00,Rainwise IP-100,2013-07-17 01:54:00,
2013-07-16 19:59:00,69.6,59.0,25.93,ESE,112,6.0,7.0,70,0.00,,,0.00,Rainwise IP-100,2013-07-17 01:59:00,
2013-07-16 20:04:00,69.3,59.0,25.94,SSE,157,5.0,6.0,71,0.00,,,0.00,Rainwise IP-100,2013-07-17 02:04:00,
2013-07-16 20:09:00,68.9,59.0,25.94,SSE,157,6.0,9.0,71,0.00,,,0.00,Rainwise IP-100,2013-07-17 02:09:00,
2013-07-16 20:14:00,68.6,59.0,25.94,SSE,157,9.0,9.0,72,0.00,,,0.00,Rainwise IP-100,2013-07-17 02:14:00,
2013-07-16 20:19:00,68.5,59.0,25.94,SSE,157,0.0,0.0,73,0.00,,,0.00,Rainwise IP-100,2013-07-17 02:19:00,
2013-07-16 20:24:00,68.5,59.0,25.94,South,180,5.0,7.0,73,0.00,,,0.00,Rainwise IP-100,2013-07-17 02:24:00,
2013-07-16 20:29:00,68.4,59.0,25.95,SSE,157,0.0,5.0,73,0.00,,,0.00,Rainwise IP-100,2013-07-17 02:29:00,
2013-07-16 20:34:00,68.1,59.0,25.94,SSE,157,8.0,8.0,73,0.00,,,0.00,Rainwise IP-100,2013-07-17 02:34:00,
2013-07-16 20:39:00,67.8,59.0,25.95,ESE,112,5.0,5.0,74,0.00,,,0.00,Rainwise IP-100,2013-07-17 02:39:00,
2013-07-16 20:44:00,67.6,59.0,25.95,SSE,157,0.0,5.0,75,0.00,,,0.00,Rainwise IP-100,2013-07-17 02:44:00,
2013-07-16 20:49:00,67.3,59.0,25.95,South,180,0.0,6.0,75,0.00,,,0.00,Rainwise IP-100,2013-07-17 02:49:00,
2013-07-16 20:54:00,67.0,59.0,25.96,SE,135,8.0,8.0,76,0.00,,,0.00,Rainwise IP-100,2013-07-17 02:54:00,
2013-07-16 20:59:00,66.6,59.0,25.96,SSE,157,0.0,4.0,76,0.00,,,0.00,Rainwise IP-100,2013-07-17 02:59:00,
2013-07-16 21:04:00,66.4,59.0,25.97,SSE,157,4.0,5.0,77,0.00,,,0.00,Rainwise IP-100,2013-07-17 03:04:00,
2013-07-16 21:09:00,66.2,59.0,25.97,SSW,202,4.0,4.0,78,0.00,,,0.00,Rainwise IP-100,2013-07-17 03:09:00,
2013-07-16 21:14:00,66.2,59.0,25.96,ESE,112,6.0,6.0,79,0.00,,,0.00,Rainwise IP-100,2013-07-17 03:14:00,
2013-07-16 21:19:00,66.1,59.0,25.97,South,180,6.0,9.0,79,0.00,,,0.00,Rainwise IP-100,2013-07-17 03:19:00,
2013-07-16 21:24:00,66.0,59.0,25.97,SSE,157,5.0,5.0,80,0.00,,,0.00,Rainwise IP-100,2013-07-17 03:24:00,
2013-07-16 21:29:00,65.7,59.0,25.97,SSE,157,8.0,8.0,80,0.00,,,0.00,Rainwise IP-100,2013-07-17 03:29:00,
2013-07-16 21:34:00,65.6,59.0,25.97,SE,135,0.0,2.0,81,0.00,,,0.00,Rainwise IP-100,2013-07-17 03:34:00,
2013-07-16 21:39:00,65.4,60.0,25.97,SE,135,5.0,5.0,82,0.00,,,0.00,Rainwise IP-100,2013-07-17 03:39:00,
2013-07-16 21:44:00,65.3,59.0,25.98,SSE,157,7.0,7.0,83,0.00,,,0.00,Rainwise IP-100,2013-07-17 03:44:00,
2013-07-16 21:49:00,65.1,60.0,25.98,SE,135,2.0,2.0,84,0.00,,,0.00,Rainwise IP-100,2013-07-17 03:49:00,
2013-07-16 21:54:00,64.9,60.0,25.98,South,180,4.0,4.0,84,0.00,,,0.00,Rainwise IP-100,2013-07-17 03:54:00,
2013-07-16 21:59:00,64.8,60.0,25.98,SSE,157,8.0,8.0,85,0.00,,,0.00,Rainwise IP-100,2013-07-17 03:59:00,
2013-07-16 22:01:00,64.7,60.0,25.99,SSE,157,8.0,8.0,85,0.00,,,0.00,Rainwise IP-100,2013-07-17 04:01:00,
2013-07-16 22:06:00,64.7,60.0,25.98,ESE,112,5.0,5.0,86,0.00,,,0.00,Rainwise IP-100,2013-07-17 04:06:00,
2013-07-16 22:11:00,64.6,60.0,25.99,SE,135,7.0,7.0,86,0.00,,,0.00,Rainwise IP-100,2013-07-17 04:11:00,
2013-07-16 22:16:00,64.8,60.0,25.99,East,90,7.0,7.0,87,0.00,,,0.00,Rainwise IP-100,2013-07-17 04:16:00,
2013-07-16 22:21:00,64.8,60.0,25.99,ESE,112,8.0,8.0,87,0.00,,,0.00,Rainwise IP-100,2013-07-17 04:21:00,
2013-07-16 22:26:00,64.8,60.0,25.99,ESE,112,0.0,4.0,87,0.00,,,0.00,Rainwise IP-100,2013-07-17 04:26:00,
2013-07-16 22:31:00,64.8,60.0,25.99,SE,135,4.0,4.0,87,0.00,,,0.00,Rainwise IP-100,2013-07-17 04:31:00,
2013-07-16 22:36:00,64.6,60.0,25.99,SE,135,3.0,4.0,87,0.00,,,0.00,Rainwise IP-100,2013-07-17 04:36:00,
2013-07-16 22:41:00,64.3,60.0,25.99,SE,135,8.0,8.0,87,0.00,,,0.00,Rainwise IP-100,2013-07-17 04:41:00,
2013-07-16 22:46:00,64.1,60.0,25.99,SSE,157,5.0,5.0,87,0.00,,,0.00,Rainwise IP-100,2013-07-17 04:46:00,
2013-07-16 22:51:00,64.0,60.0,26.00,ESE,112,5.0,6.0,88,0.00,,,0.00,Rainwise IP-100,2013-07-17 04:51:00,
2013-07-16 22:56:00,63.8,60.0,26.00,ESE,112,9.0,9.0,88,0.00,,,0.00,Rainwise IP-100,2013-07-17 04:56:00,
2013-07-16 23:01:00,63.7,60.0,26.01,SE,135,4.0,0.0,89,0.00,,,0.00,Rainwise IP-100,2013-07-17 05:01:00,
2013-07-16 23:06:00,63.8,60.0,26.00,SSE,157,9.0,9.0,89,0.00,,,0.00,Rainwise IP-100,2013-07-17 05:06:00,
2013-07-16 23:11:00,64.0,60.0,26.01,SSE,157,0.0,3.0,89,0.00,,,0.00,Rainwise IP-100,2013-07-17 05:11:00,
2013-07-16 23:16:00,64.1,60.0,26.00,SE,135,0.0,5.0,88,0.00,,,0.00,Rainwise IP-100,2013-07-17 05:16:00,
2013-07-16 23:21:00,64.2,60.0,26.01,SSW,202,7.0,8.0,88,0.00,,,0.00,Rainwise IP-100,2013-07-17 05:21:00,
2013-07-16 23:26:00,64.2,60.0,26.01,SSE,157,0.0,7.0,88,0.00,,,0.00,Rainwise IP-100,2013-07-17 05:26:00,
2013-07-16 23:31:00,64.1,60.0,26.00,SSE,157,0.0,9.0,88,0.00,,,0.00,Rainwise IP-100,2013-07-17 05:31:00,
2013-07-16 23:36:00,64.0,60.0,26.01,SSE,157,9.0,9.0,88,0.00,,,0.00,Rainwise IP-100,2013-07-17 05:36:00,
2013-07-16 23:37:00,64.0,60.0,26.01,SSE,157,0.0,4.0,88,0.00,,,0.00,Rainwise IP-100,2013-07-17 05:37:00,
2013-07-16 23:42:00,64.0,60.0,26.00,South,180,9.0,9.0,89,0.00,,,0.00,Rainwise IP-100,2013-07-17 05:42:00,
2013-07-16 23:47:00,63.9,60.0,26.01,SSE,157,0.0,7.0,89,0.00,,,0.00,Rainwise IP-100,2013-07-17 05:47:00,
2013-07-16 23:52:00,63.9,60.0,26.01,SSE,157,0.0,8.0,89,0.00,,,0.00,Rainwise IP-100,2013-07-17 05:52:00,
2013-07-16 23:57:00,64.0,60.0,26.01,SE,135,3.0,9.0,89,0.00,,,0.00,Rainwise IP-100,2013-07-17 05:57:00,